Regional Weather Roundup
Issued by NWS

Home | Current Version | Previous Version | Text Only | Print | Product List | Glossary Off
Versions: 1 2 3 4 5 6 7 8 9 10 11 12 13 14 15 16 17 18 19 20 21 22 23 24 25 26 27 28 29 30 31 32 33 34 35 36 37 38 39 40 41 42 43 44 45 46 47 48 49 50

000
ASUS43 KLOT 011512
RWRIL

ILLINOIS REGIONAL WEATHER ROUNDUP
NATIONAL WEATHER SERVICE CHICAGO/ROMEOVILLE IL
900 AM CST WED MAR 01 2017

NOTE: "FAIR" INDICATES FEW OR NO CLOUDS BELOW 12,000 FEET WITH NO
SIGNIFICANT WEATHER AND/OR OBSTRUCTIONS TO VISIBILITY.

* THESE STATIONS ARE NOT UNDER NWS QUALITY CONTROL. THEY ALSO MAY NOT
  REPORT WEATHER SUCH AS PRECIPITATION OR FOG.

ILZ001-002-007-009-015-016-024-011600-
NORTHWEST ILLINOIS

CITY           SKY/WX    TMP DP  RH WIND       PRES   REMARKS
MOLINE         CLOUDY    38  34  85 W20G33    29.68R WCI  28
STERLING*      LGT RAIN  41  39  93 W22G28    29.61R FOG
SAVANNA*       CLOUDY    39  37  93 W14G20    29.62R WCI  31
$$

ILZ003-004-008-010-011-017-018-011600-
NORTH CENTRAL ILLINOIS

CITY           SKY/WX    TMP DP  RH WIND       PRES   REMARKS
ROCKFORD       LGT RAIN  39  35  86 NW17      29.58R WCI  30
FREEPORT*      CLOUDY    35  34  96 W12       29.60R FOG     WCI  27
ROCHELLE*      DRIZZLE   39  38  95 NW16      29.58R WCI  30
DE KALB*       CLOUDY    38  38  99 NW17G25   29.53R FOG     WCI  29
PERU*          CLOUDY    42  38  86 W20G32    29.60R
$$

ILZ005-006-012>014-019>023-011600-
NORTHEAST ILLINOIS

CITY           SKY/WX    TMP DP  RH WIND       PRES   REMARKS
CHICAGO-OHARE  DRIZZLE   42  40  92 NW9       29.48R FOG
CHICAGO-MIDWAY LGT RAIN  42  39  89 VRB3      29.49R FOG
AURORA         LGT RAIN  42  40  92 NW18G26   29.52R
LANSING*       HVY RAIN  40  40 100 CALM      29.49R VSB 1
JOLIET*        CLOUDY    47  46  96 W12G22    29.51S FOG
WAUKEGAN       MIX PCPN  37  36  96 VRB3      29.49R FOG
DUPAGE AIRPORT LGT RAIN  41  39  93 W16       29.50R FOG
KANKAKEE*      CLOUDY    46  44  96 W22G29    29.54R
WHEELING       LGT RAIN  38  37  97 NW8       29.51R FOG     WCI  32
MORRIS*        CLOUDY    45  43  93 NW20G28   29.52R FOG
ROMEOVILLE*    RAIN      45  45 100 NW18G26   29.50R
NORTHERLY ISL    N/A     39  38  96 NW6         N/A  WCI  35
$$

LMZ740>746-011600-
SOUTHERN LAKE MICHIGAN

STATION/POSITION SKY/WX   TEMP    WIND        PRES    VSBY  WAVE
                          AIR SEA DIR/SP/G                  HT/PER
                          (F)     (DEG/KT/KT) (MB)    (MI)  (FT/S)
HARRISON CRIB              38     330/ 16/ 18   N/A
BURNHAM HARBOR             39      10/  3/ 12   N/A
CALUMET HARBOR             38     320/  3/  5  998.5R
BURNS HARBOR               37     270/ 10/ 11  999.3R
MICHIGAN CITY              36     210/ 10/ 11   N/A
$$

ILZ025>027-034>036-040-047-049-050-058-095>099-011600-
WEST-CENTRAL ILLINOIS

CITY           SKY/WX    TMP DP  RH WIND       PRES   REMARKS
QUINCY         CLOUDY    41  36  82 W22       29.81R
GALESBURG*     CLOUDY    38  36  92 W24G35    29.70R WCI  26
MACOMB*        CLOUDY    40  37  90 W28G39    29.76R
JACKSONVILLE*  CLOUDY    43  39  86 W15       29.77R
PITTSFIELD*    CLOUDY    45  39  82 W20G25    29.80R
$$

ILZ028>032-037-038-041>044-048-051>054-059>061-011600-
CENTRAL ILLINOIS

CITY           SKY/WX    TMP DP  RH WIND       PRES   REMARKS
PONTIAC        CLOUDY    44  44  99 W29G37    29.59R
BLOOMINGTON    CLOUDY    42  40  92 W30G43    29.62R
DECATUR        CLOUDY    45  40  82 W26G36    29.68R
PEORIA         CLOUDY    41  38  89 W17G30    29.68R
LACON*         CLOUDY    40  39  96 W18G30    29.64R FOG
LINCOLN*       CLOUDY    44  41  88 W15G28    29.69R
SPRINGFIELD    CLOUDY    46  40  79 W17G30    29.73R
TAYLORVILLE    CLOUDY    45  41  88 W20G29    29.72R
$$

ILZ033-039-045-046-055>057-062-063-011600-
EAST-CENTRAL ILLINOIS

CITY           SKY/WX    TMP DP  RH WIND       PRES   REMARKS
CHAMPAIGN      CLOUDY    46  42  86 W23G33    29.63R FOG
RANTOUL*       CLOUDY    46  45  96 W23G30    29.61R FOG
MATTOON        CLOUDY    49  47  93 W18G29    29.64R
PARIS*         CLOUDY    50  48  92 W31G43    29.63R FOG
$$

ILZ079-100>102-011600-
SOUTHWEST ILLINOIS

CITY           SKY/WX    TMP DP  RH WIND       PRES   REMARKS
ALTON          CLOUDY    45  39  81 W18       29.78
BELLEVILLE     CLOUDY    48  43  82 NW13G24   29.78R
CAHOKIA*       CLOUDY    48  39  71 W18G30    29.80R
SPARTA*        CLOUDY    50  44  80 W15G26    29.79R
$$

ILZ064>066-069>071-074>076-080>082-084>086-088>090-092>094-011600-
SOUTH-CENTRAL ILLINOIS

CITY           SKY/WX    TMP DP  RH WIND       PRES   REMARKS
CARBONDALE     CLOUDY    53  46  77 W17G35    29.77R
CAIRO*         SUNNY     60  52  73 W17G24    29.78R
EFFINGHAM*     CLOUDY    50  47  88 W20G31    29.71R
MARION         CLOUDY    55  52  88 W14G25    29.77R
MT. VERNON     CLOUDY    52  46  80 W13G20    29.75R
CENTRALIA*     CLOUDY    51  47  84 W23G31    29.75R
SALEM*         CLOUDY    52  45  79 W24G32    29.73R
METROPOLIS*    SUNNY     62  52  70 W12       29.76R
$$

ILZ067-068-072-073-078-083-087-091-011600-
SOUTHEAST ILLINOIS

CITY           SKY/WX    TMP DP  RH WIND       PRES   REMARKS
LAWRENCEVILLE  CLOUDY    56  50  80 W24G32    29.66R
FLORA*         CLOUDY    53  46  77 W29G39    29.72R
FAIRFIELD*     CLOUDY    54  46  76 W13G22    29.72R
HARRISBURG*    CLOUDY    57  51  81 W25       29.75R
ROBINSON*      CLOUDY    55  49  81 W24G32    29.66R
$$

ABBREVIATIONS USED IN REMARKS
   TC - TEMPERATURE IN CELSIUS
  WCI - WIND CHILL INDEX
   HX - HEAT INDEX
  VSB - VISIBILITY
$$




USA.gov is the U.S. government's official web portal to all federal, state and local government web resources and services.